TimeEDT,TemperatureF,Dew PointF,Humidity,Sea Level PressureIn,VisibilityMPH,Wind Direction,Wind SpeedMPH,Gust SpeedMPH,PrecipitationIn,Events,Conditions,WindDirDegrees,DateUTC
12:15 AM,33.8,32.0,93,29.67,10.0,Calm,Calm,-,N/A,,Overcast,0,2013-03-25 04:15:00
12:35 AM,33.8,32.0,93,29.66,10.0,SE,3.5,-,N/A,,Overcast,130,2013-03-25 04:35:00
12:55 AM,33.8,32.0,93,29.65,10.0,Calm,Calm,-,N/A,,Overcast,0,2013-03-25 04:55:00
1:15 AM,33.8,32.0,93,29.64,10.0,ESE,4.6,-,N/A,,Overcast,120,2013-03-25 05:15:00
1:35 AM,33.8,32.0,93,29.64,10.0,East,3.5,-,N/A,,Overcast,80,2013-03-25 05:35:00
1:55 AM,33.8,32.0,93,29.63,10.0,Calm,Calm,-,N/A,,Overcast,0,2013-03-25 05:55:00
2:15 AM,33.8,32.0,93,29.62,10.0,NE,3.5,-,N/A,,Overcast,50,2013-03-25 06:15:00
2:35 AM,33.8,32.0,93,29.61,10.0,Calm,Calm,-,N/A,,Overcast,0,2013-03-25 06:35:00
2:55 AM,33.8,32.0,93,29.61,10.0,Calm,Calm,-,N/A,Rain,Light Rain,0,2013-03-25 06:55:00
3:15 AM,33.8,32.0,93,29.63,7.0,West,5.8,-,N/A,Rain,Light Rain,270,2013-03-25 07:15:00
3:35 AM,32.0,32.0,100,29.64,1.8,West,9.2,-,N/A,Snow,Light Snow,280,2013-03-25 07:35:00
3:55 AM,32.0,32.0,100,29.64,1.0,WNW,5.8,-,0.01,Snow,Snow,290,2013-03-25 07:55:00
4:15 AM,32.0,32.0,100,29.64,0.8,Calm,Calm,-,0.01,Snow,Snow,0,2013-03-25 08:15:00
4:35 AM,32.0,32.0,100,29.61,0.8,NNE,3.5,-,0.04,Snow,Light Snow,30,2013-03-25 08:35:00
4:55 AM,32.0,32.0,100,29.61,1.8,NNE,3.5,-,0.06,Snow,Light Snow,20,2013-03-25 08:55:00
5:15 AM,32.0,32.0,100,29.60,1.8,North,3.5,-,N/A,Snow,Light Snow,360,2013-03-25 09:15:00
5:35 AM,32.0,32.0,100,29.60,1.5,North,3.5,-,0.02,Snow,Light Snow,10,2013-03-25 09:35:00
5:55 AM,32.0,32.0,100,29.59,1.2,North,3.5,-,0.04,Snow,Light Snow,360,2013-03-25 09:55:00
6:15 AM,32.0,32.0,100,29.59,1.5,North,3.5,-,0.01,Snow,Light Snow,10,2013-03-25 10:15:00
6:35 AM,32.0,32.0,100,29.59,1.8,NNE,3.5,-,0.02,Snow,Light Snow,30,2013-03-25 10:35:00
6:45 AM,32.0,32.0,100,29.59,1.0,NNE,3.5,-,N/A,Snow,Light Snow,30,2013-03-25 10:45:00
7:52 AM,32.0,32.0,100,29.58,1.2,NE,3.5,-,N/A,Snow,Light Snow,40,2013-03-25 11:52:00
8:45 AM,32.0,32.0,100,29.57,1.2,NNE,4.6,-,N/A,Snow,Light Snow,30,2013-03-25 12:45:00
9:45 AM,33.8,33.8,100,29.56,1.0,North,5.8,-,N/A,Snow,Light Snow,10,2013-03-25 13:45:00
10:45 AM,33.8,33.8,100,29.56,1.0,North,6.9,-,N/A,Snow,Light Snow,10,2013-03-25 14:45:00
11:54 AM,33.8,33.8,100,29.56,1.0,North,4.6,-,N/A,Snow,Light Snow,350,2013-03-25 15:54:00
12:50 PM,33.8,33.8,100,29.57,1.5,North,5.8,-,N/A,Snow,Light Snow,350,2013-03-25 16:50:00
1:50 PM,35.6,35.6,100,29.57,2.0,North,5.8,-,N/A,Snow,Light Snow,350,2013-03-25 17:50:00
2:45 PM,35.6,35.6,100,29.56,2.0,North,5.8,-,N/A,Rain,Light Rain,10,2013-03-25 18:45:00
3:50 PM,35.6,35.6,100,29.56,2.0,Calm,Calm,-,N/A,Rain,Light Rain,0,2013-03-25 19:50:00
4:55 PM,35.6,35.6,100,29.59,20.0,Calm,Calm,-,N/A,Rain,Light Rain,0,2013-03-25 20:55:00
5:52 PM,33.8,33.8,100,29.60,1.0,Calm,Calm,-,N/A,Snow,Light Snow,0,2013-03-25 21:52:00
7:59 PM,33.8,33.8,100,29.67,2.0,Calm,Calm,-,N/A,,Drizzle,0,2013-03-25 23:59:00
8:55 PM,33.8,33.8,100,29.69,5.0,Calm,Calm,-,N/A,,Light Drizzle,0,2013-03-26 00:55:00
9:15 PM,33.8,33.8,100,29.70,7.0,Calm,Calm,-,N/A,,Overcast,0,2013-03-26 01:15:00
9:35 PM,33.8,33.8,100,29.70,7.0,Calm,Calm,-,N/A,,Light Drizzle,0,2013-03-26 01:35:00
9:55 PM,33.8,33.8,100,29.71,7.0,Calm,Calm,-,N/A,Rain,Light Rain,0,2013-03-26 01:55:00
10:15 PM,32.0,32.0,100,29.71,7.0,Calm,Calm,-,N/A,,Overcast,0,2013-03-26 02:15:00
10:35 PM,32.0,32.0,100,29.71,7.0,Calm,Calm,-,N/A,,Overcast,0,2013-03-26 02:35:00
10:55 PM,32.0,32.0,100,29.72,5.0,Calm,Calm,-,N/A,,Overcast,0,2013-03-26 02:55:00
11:15 PM,32.0,32.0,100,29.72,3.0,Calm,Calm,-,N/A,,Overcast,0,2013-03-26 03:15:00
11:35 PM,32.0,32.0,100,29.72,1.5,Calm,Calm,-,N/A,,Overcast,0,2013-03-26 03:35:00
11:55 PM,32.0,32.0,100,29.72,2.0,SW,4.6,-,N/A,,Overcast,220,2013-03-26 03:55:00